Regional Weather Roundup
Issued by NWS

Home | Current Version | Previous Version | Text Only | Print | Product List | Glossary Off
Versions: 1 2 3 4 5 6 7 8 9 10 11 12 13 14 15 16 17 18 19 20 21 22 23 24 25 26 27

000
ASUS45 KBOU 201410
RWRCO

WEATHER ROUNDUP FOR COLORADO
NATIONAL WEATHER SERVICE DENVER/BOULDER CO
700 AM MST SAT JAN 20 2018

NOTE: "FAIR" INDICATES FEW OR NO CLOUDS BELOW 12000 FEET WITH NO
SIGNIFICANT WEATHER AND/OR OBSTRUCTIONS TO VISIBILITY.

COZ001>005-013-030-031-201500-
...NORTHWEST COLORADO...

CITY           SKY/WX    TMP DP  RH WIND       PRES   REMARKS
CRAIG          CLOUDY    32  25  75 E3        29.80S
HAYDEN         LGT RAIN N/A N/A N/A CALM      29.81S
MEEKER         CLOUDY    43  24  47 S3        29.76F
RABBIT EARS PA CLOUDY    28  21  74 SW9G23    29.87R WCI  20
STEAMBOAT SPGS CLOUDY    26  22  82 CALM      29.80S
WALDEN         MOCLDY    32  25  74 S3        29.83R
$$

COZ006>008-011-201500-
...WEST CENTRAL VALLEYS...

CITY           SKY/WX    TMP DP  RH WIND       PRES   REMARKS
GRAND JUNCTION CLOUDY    50  23  34 S21G35    29.75F
MONTROSE       MOCLDY    38  24  57 E3        29.83F
EAGLE          FAIR      28  19  69 VRB3      29.85S
RIFLE          CLOUDY    31  25  78 VRB3      29.80F
DELTA          CLOUDY    45  25  45 NW3       29.81F
NUCLA          FAIR      45  21  39 S10       29.86F
$$

COZ017>023-064>068-201500-
...SOUTHWEST COLORADO...

CITY           SKY/WX    TMP DP  RH WIND       PRES   REMARKS
DURANGO        CLOUDY    25  19  78 NE6       29.96F WCI  18
CORTEZ         CLOUDY    33  24  69 CALM      29.90S
PAGOSA SPRINGS CLOUDY    27  17  65 CALM      30.00S
TELLURIDE      CLOUDY    38  23  54 E6        29.93S
WOLF CREEK PAS CLOUDY    21  18  86 S15G23    30.09R WCI   8
$$

COZ009-010-012-014-032>034-037-058>063-201500-
...CENTRAL COLORADO...

CITY           SKY/WX    TMP DP  RH WIND       PRES   REMARKS
ASPEN          CLOUDY    32  21  64 SE7       29.84R WCI  26
BUENA VISTA    FAIR      18  11  76 W6        29.91R WCI  10
COPPER MTN     NOT AVBL
BERTHOUD PASS  FAIR      21  10  63 W22G32    29.93F WCI   5
COTTONWOOD PAS   N/A     37  18  44 SW9       29.92S
GUNNISON       FAIR      11   7  84 CALM      29.95S
KREMMLING      CLOUDY    23  19  86 CALM      29.86S
LEADVILLE      FAIR      24  12  60 E6        29.89R WCI  17
MONARCH PASS   MOCLDY    21  14  73 SW20      30.07S WCI   6
SALIDA         FAIR      37  15  41 NW3       29.97R
SUNLIGHT       LGT SNOW  27  21  80 S10G23    29.93R WCI  17
WILKERSON PASS FAIR      25  12  58 SW16G30   29.94F WCI  12
$$

COZ069>075-201500-
...SAN LUIS VALLEY/SANGRE DE CRISTO MOUNTAINS...

CITY           SKY/WX    TMP DP  RH WIND       PRES   REMARKS
ALAMOSA        FAIR      10   3  73 SW3       29.93S
DEL NORTE      FAIR      19   8  61 CALM      29.94S
LA VETA PASS   FAIR      32  19  59 S22G37      N/A  WCI  19
SAGUACHE       FAIR      14  10  85 NW8       29.95S WCI   3
$$

COZ035-036-038>040-201500-
...NORTHERN COLORADO FRONT RANGE...

CITY           SKY/WX    TMP DP  RH WIND       PRES   REMARKS
DENVER INTL AP FAIR      41  16  36 W8        29.75R
DMNS CITY PARK NOT AVBL
AURORA         MOCLDY    41  16  36 SW8       29.75R
FRONT RANGE AP FAIR      43  18  36 SW8       29.75S
ERIE MUNI ARPT FAIR      29  18  61 CALM      29.81R
BOULDER MUN AP FAIR      36  19  51 CALM      29.75R
CENTENNIAL     MOCLDY    50  17  27 SW20      29.74S
BROOMFIELD     PTCLDY    45  12  26 N6        29.75F
FORT COLLINS   FAIR      28  20  71 CALM      29.75S
LONGMONT       FAIR      28  20  73 S5        29.78R WCI  23
$$

COZ041-046-047-076>085-087-088-201500-
...PIKES PEAK/PALMER DIVIDE AND SOUTHERN FOOTHILLS...

CITY           SKY/WX    TMP DP  RH WIND       PRES   REMARKS
COLO. SPRINGS  MOCLDY    50  17  27 SW22      29.80R
A. F. ACADEMY  FAIR      30  13  48 NE3       29.80S
SCHRIEVER AFB  FAIR      43  13  30 SW10      29.80R
CHEYENNE MTN   FAIR      46  15  28 N6        29.76R
ELLICOTT         N/A    N/A N/A N/A NE3       29.79R
FALCON         FAIR      39  12  32 W6        29.83S
FORT CARSON    FAIR      37  15  39 CALM      29.78R
LIMON          FAIR      27  16  63 N5        29.76R WCI  22
MONUMENT HILL  FAIR      36  14  41 SW14      29.83R
CANON CITY     FAIR      39  19  45 W16       29.78F
WALSENBURG     FAIR      46  19  34 SW9       29.84S
TRINIDAD       FAIR      39  18  42 W16       29.84R
$$

COZ042>045-048>051-090-091-201500-
...NORTHEAST COLORADO...

CITY           SKY/WX    TMP DP  RH WIND       PRES   REMARKS
GREELEY ARPT   FAIR      20  17  88 N3        29.76R
AKRON          FAIR      28  20  71 N7        29.74R WCI  21
BURLINGTON     FAIR      23  18  81 W6        29.74S WCI  16
WRAY           FAIR      25  21  86 CALM      29.77R
YUMA           FAIR      21  16  79 CALM      29.75R
STERLING       FAIR      27  23  86 CALM      29.76R
HOLYOKE        FAIR      30  27  86 N7        29.78R WCI  23
FORT MORGAN    FAIR      26  18  72 N10       29.74F WCI  15
$$

COZ086-089-092>099-201500-
...SOUTHEAST COLORADO...

CITY           SKY/WX    TMP DP  RH WIND       PRES   REMARKS
PUEBLO         FAIR      30  17  58 W3        29.77R
LA JUNTA       FAIR      36  18  48 MISG      29.75S
LAMAR          FAIR      19  11  70 SW8       29.73R WCI   9
SPRINGFIELD      N/A     44  19  36 W13       29.75R
$$




USA.gov is the U.S. government's official web portal to all federal, state and local government web resources and services.